This is the latest recevied weather packets stored in our database for station/object KG7FOQ-13. If no packets are shown the sender has not sent any weather packets the latest 10 day(s).
| Time | Temp. | Humidity | Pressure | Rain* | Wind** | Luminosity | Snow |
|---|---|---|---|---|---|---|---|
| 1787949762 | 26.11° C | 40% | 1017.4 hPa | 0 mm | - | - | - |
| 1787949461 | 25° C | 42% | 1017.7 hPa | 0 mm | - | - | - |
| 1787949161 | 25° C | 40% | 1017.7 hPa | 0 mm | - | - | - |
| 1787948860 | 25° C | 40% | 1017.9 hPa | 0 mm | - | - | - |
| 1787948560 | 25° C | 41% | 1017.7 hPa | 0 mm | - | - | - |
| 1787948260 | 25.56° C | 42% | 1017.8 hPa | 0 mm | - | - | - |
| 1787947959 | 25.56° C | 41% | 1017.8 hPa | 0 mm | - | - | - |
| 1787947658 | 26.11° C | 38% | 1017.7 hPa | 0 mm | - | - | - |
| 1787947358 | 25.56° C | 37% | 1017.7 hPa | 0 mm | - | - | - |
| 1787947057 | 26.11° C | 38% | 1017.5 hPa | 0 mm | - | - | - |
| 1787946756 | 26.11° C | 37% | 1017.5 hPa | 0 mm | - | - | - |
| 1787946271 | 26.11° C | 35% | 1017.5 hPa | 0 mm | - | - | - |
| 1787946155 | 26.11° C | 35% | 1017.5 hPa | 0 mm | - | - | - |
| 1787945854 | 26.11° C | 36% | 1017.5 hPa | 0 mm | - | - | - |
| 1787945554 | 25.56° C | 36% | 1017.5 hPa | 0 mm | - | - | - |
| 1787945331 | 25.56° C | 37% | 1017.5 hPa | 0 mm | - | - | - |
| 1787945253 | 25.56° C | 37% | 1017.5 hPa | 0 mm | - | - | - |
| 1787944953 | 25.56° C | 36% | 1017.5 hPa | 0 mm | - | - | - |
| 1787944652 | 25.56° C | 37% | 1017.5 hPa | 0 mm | - | - | - |
| 1787944351 | 25.56° C | 36% | 1017.5 hPa | 0 mm | - | - | - |
| 1787944051 | 25° C | 39% | 1017.5 hPa | 0 mm | - | - | - |
| 1787943792 | 25° C | 38% | 1017.5 hPa | 0 mm | - | - | - |
| 1787943750 | 25° C | 38% | 1017.5 hPa | 0 mm | - | - | - |
| 1787943450 | 24.44° C | 42% | 1017.5 hPa | 0 mm | - | - | - |
| 1787943149 | 24.44° C | 43% | 1017.7 hPa | 0 mm | - | - | - |
* Rain latest hour (hover to see other rain measurements)
** Current wind speed in m/s (hover to see current wind gust speed)